www.pogodaiklimat.ru

Погода и климат >> Архив погоды >> Россия >> город Москва >> Москва


АРХИВ ПОГОДЫ в Москве

Время (UTC), дата Ветер
(напр.,м/с)
 
Видим.   Явления Облачность Т
(С)
Тd
(С)
f
(%)
Тe
(С)
Тes
(С)
Комфортность P
(гПа)
Po
(гПа)
Тmin
(С)
Tmax
(С)
R
(мм)
R24
(мм)
S
(см)
21 16.04 СВ 1 н/о гроза, ливневой дождь 10/10 600 м
[Cb calv]
+10.6 +7.8 83 +10 +10 тепло 1017.0 997.9
00 17.04 штиль 0 н/о дымка {гроза, ливн. осадки} 4/0
[Ac trans]
+9.1 +8.0 93 +8 +8 тепло 1017.0 997.9
03 17.04 штиль 0 2000 м дымка 8/0
[Ci fib]
+7.0 +6.4 96 +6 +6 по сезону 1017.2 997.9 +7.0 4
06 17.04 СВ 1 10 км дымка 8/0
[Ci sp]
+13.8 +9.4 75 +14 +20 тепло 1017.3 998.4 +7.0 4
09 17.04 штиль 0 10 км 10/8 600 м
[Sc Ac trans]
+17.6 +7.2 50 +18 +19 тепло 1016.9 998.3
12 17.04 штиль 0 10 км 8/3 600 м
[Sc Ac trans Ci sp]
+19.7 +4.4 36 +20 +25 тепло 1016.0 997.5
15 17.04 штиль 0 10 км 10/10 600 м
[Sc]
+18.0 +6.7 48 +18 +18 тепло 1014.7 996.1
18 17.04 ЮЗ 1 н/о 10/10 600 м
[Sc]
+16.3 +7.8 57 +17 +17 тепло 1014.7 996.0 +20.2
21 17.04 Ю 1 н/о {дождь} 10/10 600 м
[Sc]
+14.5 +9.0 70 +15 +15 тепло 1012.9 994.1
00 18.04 штиль 0 н/о {дождь} 10/10 600 м
[Sc]
+14.0 +8.8 71 +14 +14 тепло 1010.9 992.2
03 18.04 штиль 0 10 км 10/10 600 м
[Sc]
+12.6 +8.7 77 +12 +12 тепло 1009.7 990.9 +12.6 0.5
06 18.04 штиль 0 4000 м слабый дождь 10/10 300 м
[Frnb]
+11.1 +10.2 94 +10 +10 тепло 1008.7 989.9 +10.9 1
09 18.04 СЗ 1 2000 м ливневой дождь 10/10 300 м
[Cb cap]
+10.3 +9.3 94 +10 +10 по сезону 1008.5 989.6
12 18.04 СЗ 2 4000 м дымка {ливн. осадки, дождь} 10/10 300 м
[Frnb]
+8.4 +6.1 85 +7 +7 прохладно 1009.6 990.5
15 18.04 СЗ 1 4000 м слабый ливневой дождь 10/10 300 м
[Cb cap]
+7.1 +6.0 93 +6 +6 прохладно 1009.9 990.7 8
18 18.04 СЗ 2 н/о в посл. час ливневой дождь 10/10 300 м
[Frnb]
+6.8 +5.4 91 +4 +4 прохладно 1009.3 990.1 +11.4 8
21 18.04 СЗ 1 н/о слабый дождь 10/10 200 м
[Frnb Ns]
+6.4 +5.4 93 +5 +5 по сезону 1007.4 988.2
00 19.04 С 2 н/о слабый дождь 10/10 300 м
[Frnb Ns]
+6.8 +6.0 95 +4 +4 по сезону 1006.3 987.2
03 19.04 С 3 4000 м в посл. час дождь 10/10 300 м
[Frnb]
+6.9 +5.3 90 +4 +4 по сезону 1005.5 986.4 +6.4 7
06 19.04 С 3 10 км {дождь} 10/3 600 м
[Sc As trans]
+7.0 +2.7 74 +4 +6 по сезону 1005.6 986.5 +6.4 6
09 19.04 С 4
{11}
10 км 8/0
[Ac trans Cs]
+10.4 +1.9 56 +8 +13 по сезону 1005.5 986.6
12 19.04 С 6-13
{13}
10 км 8/0
[Ci]
+14.0 -2.2 33 +12 +15 по сезону 1005.7 987.0
15 19.04 С 5-12
{17}
10 км 9/3 1000 м
[Sc Ci]
+13.7 -1.4 35 +12 +13 тепло 1006.9 988.2
18 19.04 С 4
{14}
н/о 3/0
[Ci fib]
+12.0 -1.7 38 +10 +10 тепло 1009.4 990.5 +14.9
21 19.04 С 3
{12}
н/о ясно +9.9 -2.9 40 +8 +8 по сезону 1011.0 991.9
00 20.04 С 3 н/о ясно +7.7 -2.3 49 +5 +5 по сезону 1012.3 993.1
03 20.04 С 3 10 км ясно +6.0 -2.2 56 +3 +3 по сезону 1014.1 994.7 +6.0
06 20.04 С 2 10 км 3/0
[Ac lent]
+10.0 -1.6 44 +9 +14 по сезону 1015.0 995.9 +6.0
09 20.04 С 5-12
{11}
10 км 3/1 600 м
[Cu hum Ac lent]
+13.0 -1.7 36 +11 +16 по сезону 1014.9 996.0
12 20.04 СЗ 3
{13}
10 км 9/9 600 м
[Cu Sc]
+13.9 -1.5 34 +13 +14 по сезону 1014.6 995.7
15 20.04 С 2 10 км 9/8 600 м
[Sc Ac trans]
+13.4 -1.6 35 +13 +13 тепло 1013.8 994.9
18 20.04 штиль 0 н/о 8/0
[Cs]
+9.9 +0.2 51 +10 +10 по сезону 1012.9 993.9 +14.7
21 20.04 штиль 0 н/о 9/9 600 м
[Sc]
+8.9 +2.2 63 +8 +8 по сезону 1011.2 992.1
00 21.04 штиль 0 н/о 10/10 600 м
[Sc]
+10.2 +1.0 53 +10 +10 тепло 1007.5 988.6
03 21.04 З 1 10 км в посл. час дождь 10/10 600 м
[Sc]
+10.4 +2.1 56 +10 +10 тепло 1003.9 985.0 +8.9 0.0
06 21.04 ЮЗ 2 10 км {дождь} 6/0
[Ac cast Cc]
+13.6 +4.8 55 +13 +18 тепло 999.7 981.1 +8.9 0.0
09 21.04 ЮЗ 2 10 км 6/1 600 м
[Cu hum Ci fib]
+18.8 +6.6 45 +20 +29 тепло 993.9 975.8
12 21.04 З 3
{10}
10 км 8/8 600 м
[Cu Sc]
+19.8 +5.4 39 +21 +22 комфорт 988.8 970.8
15 21.04 СЗ 2
{15}
10 км в посл. час гроза {ливн. осадки} 10/10 600 м
[Sc diur, vesp]
+12.3 +8.2 76 +11 +11 по сезону 987.8 969.4 2
18 21.04 СЗ 3-11
{16}
н/о в посл. час ливневой дождь {гроза} 8/6 600 м
[Sc Ac cuf]
+10.0 +5.1 72 +8 +8 по сезону 988.3 969.7 +20.8 3
21 21.04 СЗ 3
{15}
н/о ливневой дождь 10/10 600 м
[Cb cap]
+5.0 +2.7 85 +2 +2 прохладно 991.0 972.1
00 22.04 СЗ 3-10
{13}
н/о слабый ливневой дождь 10/10 600 м
[Cb cap]
+3.4 +0.7 82 -0 -0 прохладно 994.3 975.1
03 22.04 СЗ 3
{12}
10 км {ливн. осадки} 10/10 600 м
[Frnb]
+3.0 -1.4 73 -1 -1 холодно 996.2 977.0 +3.0 3
06 22.04 С 3
{12}
10 км в посл. час ливневой снег 10/10 600 м
[Frnb]
+2.8 -2.3 69 -1 -1 очень
холодно
998.1 978.8 +1.9 2
09 22.04 СЗ 3
{10}
10 км {ливн. осадки} 10/10 600 м
[Sc]
+2.7 -2.6 68 -1 -1 очень
холодно
1000.4 981.1
12 22.04 С 4
{12}
10 км {ливн. осадки} 10/10 600 м
[Sc]
+2.3 -3.7 65 -2 -2 очень
холодно
1003.5 984.1
15 22.04 С 4
{12}
10 км 10/10 600 м
[Sc]
+3.1 -4.4 58 -1 -1 очень
холодно
1005.3 985.9 0.0
18 22.04 С 2
{10}
н/о {ливн. осадки} 8/8 600 м
[Sc]
+1.6 -4.3 65 -1 -1 очень
холодно
1008.3 988.8 +3.2 0.0
21 22.04 СЗ 2 н/о 9/9 600 м
[Sc]
+1.2 -5.8 60 -2 -2 очень
холодно
1009.8 990.2
00 23.04 СЗ 2 н/о 9/9 600 м
[Sc]
+0.8 -6.9 56 -2 -2 холодно 1010.7 991.0
03 23.04 СЗ 2 10 км ясно -0.4 -6.9 61 -4 -3 очень
холодно
1012.2 992.5 -0.5 0.0
06 23.04 С 3 10 км ясно +2.3 -8.9 43 -1 +4 очень
холодно
1013.3 993.7 -0.5
09 23.04 СЗ 3
{10}
10 км 3/3 600 м
[Cu hum Ci fib]
+5.0 -10.0 33 +2 +10 опасность
простуды
1013.4 993.9
12 23.04 СЗ 2
{11}
10 км 1/0
[Ci fib]
+7.3 -9.9 28 +6 +15 опасность
простуды
1012.9 993.6
15 23.04 СЗ 3 10 км ясно +7.0 -10.9 27 +5 +6 холодно 1012.8 993.5
18 23.04 СЗ 1 н/о ясно +4.9 -9.8 34 +5 +5 прохладно 1013.8 994.4 +7.5

 

Местоположение метеостанции Москва (город Москва, Россия): широта 55.83 долгота 37.62 высота над уровнем моря 156 м.

В архиве по умолчанию представлена погода в Москве за последнюю неделю. Архивные данные за месяц целиком и за предыдущие месяцы, начиная с января 2011 года, Вы можете получить, выбрав интересующий диапазон дат из раскрывающегося списка и нажав кнопку "Ввод!".


*Определитесь, кто Вы:
робот инопланетянин человек

Внимание! Время в таблицах - всемирное. Для получения местного времени необходимо прибавить поправку, которая в Москве равна 3 ч.

Смотрите также архив погоды в соседних городах и на ближайших метеорологических станциях:

Погода в Москве (Балчуг) (город Москва, Россия) (9 км)
Погода в Москве (Тушино) (город Москва, Россия) (12 км)
Погода в Долгопрудном (Московская область, Россия) (13 км)
Погода в Москве (Строгино) (город Москва, Россия) (14 км)
Погода в Красногорске (Московская область, Россия) (18 км)
Погода в Шереметьево (Московская область, Россия) (20 км)
Погода в Немчиновке (город Москва, Россия) (21 км)
Погода в Железнодорожном АМС (Московская область, Россия) (23 км)
Погода в Луговой (Московская область, Россия) (26 км)
Погода в Пушкино (Московская область, Россия) (26 км)

Пояснения к столбцам:

Ветер - указаны скорость ветра в м/с - средняя за 10 мин, порывы в срок и между сроками (в фигурных скобках) и направление, откуда дует ветер: С - северный, СВ - северо-восточный, В - восточный, ЮВ - юго-восточный, Ю - южный, ЮЗ - юго-западный, З - западный, СЗ - северо-западный.
Видимость - горизонтальная дальность видимости в метрах или километрах. При видимости от 1 до 10 км при отсутствии осадков обычно наблюдается дымка, при ухудшении видимости до 1 км и менее - туман. В сухую погоду видимость может ухудшаться дымом, пылью или мглою.
Явления - указаны атмосферные явления, наблюдавшиеся в срок или в последний час перед сроком; фигурными скобками обозначены явления, наблюдавшиеся между сроками (за 1-3 часа до срока); квадратными скобками обозначены град или гололедные отложения с указанием их диаметра в мм.
Облачность - указаны через наклонную черту общая и нижняя облачность в баллах и высота нижней границы облаков в метрах; квадратными скобками обозначены формы облаков: Ci - перистые, Cs - перисто-слоистые, Cc - перисто-кучевые, Ac - высококучевые, As - высокослоистые, Sc - слоисто-кучевые, Ns - слоисто-дождевые, Cu - кучевые, Cb - кучево-дождевые. Подробнее классификацию облаков см. в Атласе облаков (PDF).
T - Температура воздуха - температура, измеренная на высоте 2 м над землей.
Td - Температура точки росы - температура, при понижении до которой содержащийся в воздухе водяной пар достигнет насыщения.
f - Относительная влажность воздуха - влажноcть воздуха, измеренная на высоте 2 м над землей.
Te - Эффективная температура - температура, которую ощущает одетый по сезону человек в тени. Характеристика душности погоды. При расчете учитывается влияние влажности воздуха и скорости ветра на теплоощущения человека.
Tes - Эффективная температура на солнце - температура, которую ощущает человек, с поправкой на солнечный нагрев. Характеристика знойности погоды. Зависит от высоты солнца над горизонтом, облачности и скорости ветра. Ночью, в пасмурную погоду, а также при ветре 12 м/с и более поправка равна нулю.
P - Атмосферное давление - приведенное к уровню моря атмосферное давление.
Po - Атмосферное давление - измеренное на уровне метеостанции атмосферное давление.
Tmin - Минимальная температура - минимум температуры воздуха на высоте 2 м над землей.
Tmax - Максимальная температура - максимум температуры воздуха на высоте 2 м над землей.
R - Количество осадков - Количество выпавших осадков за период времени, мм. При наведении курсора мыши на число - период времени, за который выпало указанное количество осадков.
R24 - Количество осадков - Количество выпавших осадков за 24 часа, мм.
S - Снежный покров - Высота снежного покрова, см. При наведении курсора мыши на число - состояние снежного покрова и степень покрытия местности в баллах.